QPF
0.00 0.00 0.00 0.00 0.00 0.00 0.01 0.02 0.02 0.03 0.05 0.06 0.06 0.04 0.04 0.06 0.08 0.10 0.08 0.05 0.03 0.03 0.03 0.01 0.01 0.00 0.00 0.00 0.00 0.00 0.00 0.00 0.00 0.00 0.00 0.00 0.00 0.00 0.00 0.00 0.00 0.00 0.00 0.00
0.00 0.00 0.00 0.00 0.00 0.01 0.01 0.01 0.02 0.03 0.04 0.05 0.06 0.05 0.05 0.05 0.06 0.07 0.06 0.04 0.01 0.02 0.02 0.01 0.00 0.00 0.00 0.00 0.00 0.00 0.00 0.00 0.00 0.00 0.00 0.00 0.00 0.00 0.00 0.00 0.00 0.00 0.00 0.00
0.00 0.00 0.00 0.00 0.01 0.01 0.01 0.02 0.02 0.03 0.04 0.04 0.05 0.04 0.05 0.06 0.06 0.07 0.06 0.02 0.01 0.01 0.02 0.01 0.01 0.00 0.00 0.00 0.00 0.00 0.00 0.00 0.00 0.00 0.00 0.00 0.00 0.00 0.00 0.00 0.00 0.00 0.01 0.01
0.00 0.00 0.00 0.00 0.01 0.01 0.02 0.02 0.02 0.02 0.03 0.04 0.05 0.04 0.03 0.05 0.05 0.07 0.06 0.02 0.00 0.01 0.02 0.01 0.01 0.00 0.00 0.00 0.00 0.00 0.00 0.00 0.00 0.00 0.00 0.00 0.00 0.00 0.00 0.00 0.00 0.00 0.00 0.01
0.00 0.00 0.00 0.00 0.00 0.01 0.01 0.02 0.03 0.03 0.03 0.03 0.04 0.04 0.03 0.03 0.03 0.05 0.05 0.03 0.00 0.01 0.01 0.01 0.01 0.00 0.00 0.00 0.00 0.00 0.00 0.00 0.00 0.00 0.00 0.00 0.00 0.00 0.00 0.00 0.00 0.00 0.00 0.00
0.00 0.00 0.01 0.01 0.01 0.01 0.01 0.02 0.03 0.05 0.04 0.04 0.02 0.02 0.02 0.01 0.01 0.02 0.02 0.03 0.01 0.01 0.01 0.01 0.01 0.00 0.00 0.00 0.00 0.00 0.00 0.00 0.00 0.00 0.00 0.00 0.00 0.00 0.00 0.00 0.00 0.00 0.00 0.00
0.00 0.01 0.01 0.01 0.01 0.01 0.01 0.01 0.02 0.03 0.03 0.02 0.01 0.01 0.00 0.00 0.00 0.01 0.01 0.01 0.01 0.01 0.01 0.01 0.01 0.00 0.00 0.00 0.00 0.00 0.00 0.00 0.00 0.00 0.00 0.00 0.00 0.00 0.00 0.00 0.00 0.00 0.00 0.00
0.00 0.00 0.01 0.01 0.01 0.01 0.01 0.01 0.01 0.01 0.01 0.00 0.00 0.00 0.00 0.00 0.00 0.01 0.00 0.00 0.00 0.01 0.01 0.02 0.01 0.00 0.00 0.00 0.00 0.00 0.00 0.00 0.00 0.00 0.00 0.00 0.00 0.00 0.00 0.00 0.00 0.00 0.00 0.00
0.00 0.00 0.01 0.01 0.01 0.01 0.01 0.00 0.00 0.00 0.00 0.00 0.00 0.00 0.00 0.00 0.00 0.00 0.00 0.00 0.00 0.01 0.02 0.02 0.01 0.00 0.00 0.00 0.00 0.00 0.00 0.00 0.00 0.00 0.00 0.00 0.00 0.00 0.00 0.00 0.00 0.00 0.01 0.00
0.01 0.01 0.01 0.01 0.02 0.02 0.01 0.01 0.01 0.01 0.01 0.00 0.00 0.00 0.00 0.01 0.01 0.00 0.01 0.00 0.01 0.01 0.02 0.02 0.01 0.01 0.00 0.00 0.00 0.00 0.00 0.00 0.00 0.00 0.00 0.00 0.00 0.00 0.00 0.00 0.00 0.00 0.00 0.00
0.00 0.00 0.01 0.01 0.01 0.01 0.01 0.01 0.01 0.01 0.01 0.01 0.00 0.00 0.00 0.00 0.00 0.00 0.01 0.01 0.00 0.01 0.02 0.02 0.01 0.01 0.00 0.00 0.00 0.00 0.00 0.00 0.00 0.00 0.00 0.00 0.00 0.00 0.00 0.00 0.00 0.00 0.00 0.00
0.00 0.00 0.01 0.01 0.01 0.01 0.00 0.01 0.01 0.01 0.01 0.00 0.00 0.00 0.00 0.00 0.00 0.01 0.01 0.01 0.01 0.01 0.02 0.02 0.02 0.01 0.00 0.00 0.00 0.00 0.00 0.00 0.00 0.00 0.00 0.00 0.00 0.00 0.00 0.00 0.00 0.00 0.00 0.00
0.00 0.00 0.00 0.01 0.01 0.01 0.01 0.01 0.01 0.01 0.01 0.00 0.00 0.00 0.00 0.00 0.00 0.00 0.01 0.01 0.01 0.02 0.02 0.02 0.02 0.01 0.00 0.00 0.00 0.00 0.00 0.00 0.00 0.00 0.00 0.00 0.00 0.00 0.00 0.00 0.00 0.00 0.00 0.00
0.00 0.00 0.00 0.00 0.00 0.00 0.00 0.00 0.00 0.00 0.00 0.00 0.00 0.00 0.00 0.00 0.00 0.00 0.01 0.01 0.01 0.01 0.02 0.02 0.01 0.01 0.00 0.00 0.00 0.00 0.00 0.00 0.00 0.00 0.00 0.00 0.00 0.00 0.00 0.00 0.00 0.00 0.00 0.00
0.00 0.00 0.00 0.00 0.00 0.00 0.00 0.00 0.00 0.00 0.00 0.00 0.00 0.00 0.00 0.00 0.00 0.00 0.01 0.01 0.02 0.02 0.02 0.02 0.01 0.02 0.01 0.01 0.01 0.01 0.00 0.00 0.00 0.00 0.00 0.00 0.00 0.00 0.00 0.00 0.00 0.00 0.00 0.00
0.01 0.01 0.00 0.00 0.00 0.00 0.00 0.00 0.00 0.00 0.00 0.00 0.00 0.00 0.00 0.00 0.00 0.00 0.01 0.01 0.02 0.03 0.02 0.02 0.01 0.02 0.02 0.01 0.01 0.01 0.01 0.01 0.01 0.00 0.00 0.00 0.00 0.00 0.00 0.00 0.00 0.00 0.00 0.00
0.01 0.01 0.01 0.01 0.01 0.01 0.01 0.00 0.00 0.00 0.00 0.00 0.00 0.00 0.00 0.00 0.00 0.01 0.00 0.00 0.01 0.02 0.01 0.01 0.01 0.01 0.02 0.01 0.01 0.01 0.01 0.01 0.01 0.00 0.00 0.00 0.00 0.00 0.00 0.00 0.00 0.00 0.00 0.00
0.01 0.01 0.01 0.01 0.01 0.01 0.01 0.00 0.00 0.00 0.00 0.00 0.00 0.00 0.00 0.00 0.00 0.00 0.00 0.00 0.01 0.01 0.01 0.01 0.01 0.01 0.01 0.02 0.01 0.01 0.01 0.01 0.01 0.01 0.00 0.00 0.00 0.00 0.00 0.00 0.00 0.00 0.00 0.00
0.01 0.02 0.02 0.02 0.02 0.01 0.00 0.00 0.00 0.00 0.00 0.00 0.00 0.00 0.00 0.00 0.01 0.01 0.00 0.00 0.01 0.01 0.00 0.01 0.01 0.01 0.01 0.01 0.01 0.01 0.01 0.01 0.01 0.01 0.01 0.01 0.00 0.00 0.00 0.00 0.00 0.00 0.00 0.00
0.01 0.02 0.02 0.03 0.03 0.01 0.01 0.01 0.01 0.00 0.00 0.00 0.00 0.00 0.00 0.00 0.01 0.01 0.00 0.00 0.00 0.01 0.00 0.01 0.01 0.01 0.01 0.01 0.01 0.01 0.01 0.00 0.00 0.01 0.01 0.01 0.01 0.01 0.00 0.00 0.00 0.00 0.00 0.00
0.00 0.01 0.01 0.02 0.05 0.02 0.02 0.02 0.01 0.01 0.00 0.00 0.00 0.00 0.01 0.01 0.02 0.02 0.01 0.00 0.00 0.01 0.01 0.01 0.01 0.01 0.01 0.01 0.01 0.01 0.01 0.00 0.00 0.01 0.01 0.00 0.01 0.01 0.01 0.01 0.00 0.00 0.00 0.00
0.01 0.01 0.01 0.01 0.03 0.02 0.00 0.01 0.01 0.00 0.00 0.00 0.00 0.00 0.00 0.01 0.01 0.01 0.01 0.01 0.00 0.01 0.01 0.01 0.01 0.02 0.02 0.02 0.01 0.01 0.01 0.01 0.01 0.01 0.01 0.00 0.01 0.01 0.01 0.01 0.01 0.00 0.00 0.00
0.01 0.01 0.01 0.01 0.01 0.00 0.01 0.01 0.01 0.01 0.01 0.00 0.00 0.00 0.00 0.00 0.01 0.01 0.01 0.01 0.01 0.01 0.01 0.01 0.01 0.02 0.02 0.03 0.03 0.02 0.02 0.02 0.02 0.01 0.01 0.00 0.01 0.01 0.01 0.01 0.01 0.01 0.00 0.00
0.01 0.00 0.00 0.01 0.01 0.01 0.01 0.01 0.00 0.00 0.00 0.00 0.00 0.00 0.00 0.00 0.01 0.01 0.01 0.01 0.01 0.01 0.01 0.01 0.01 0.02 0.02 0.03 0.03 0.02 0.02 0.01 0.01 0.01 0.01 0.00 0.00 0.00 0.00 0.00 0.01 0.01 0.00 0.00
0.01 0.01 0.01 0.01 0.01 0.01 0.01 0.00 0.00 0.00 0.00 0.00 0.00 0.00 0.00 0.00 0.00 0.00 0.00 0.01 0.01 0.01 0.01 0.02 0.02 0.01 0.02 0.02 0.01 0.01 0.00 0.00 0.01 0.01 0.01 0.00 0.00 0.00 0.00 0.00 0.00 0.00 0.00 0.00
0.00 0.00 0.01 0.01 0.01 0.01 0.01 0.01 0.00 0.00 0.00 0.00 0.00 0.00 0.00 0.00 0.00 0.00 0.00 0.01 0.01 0.01 0.01 0.01 0.01 0.02 0.02 0.01 0.01 0.01 0.01 0.00 0.01 0.01 0.00 0.00 0.00 0.00 0.00 0.00 0.00 0.00 0.01 0.01
MSLP
1015.83 1016.55 1017.10 1017.48 1017.71 1017.84 1017.92 1017.98 1018.04 1018.11 1018.17 1018.21 1018.20 1018.14 1018.02 1017.87 1017.71 1017.56 1017.46 1017.40 1017.39 1017.40 1017.43 1017.46 1017.48 1017.50 1017.52 1017.56 1017.65 1017.80 1018.00 1018.26 1018.54 1018.81 1019.05 1019.21 1019.28 1019.25 1019.13 1018.95 1018.72 1018.48 1018.25 1018.05
1016.45 1017.07 1017.50 1017.78 1017.93 1018.02 1018.10 1018.19 1018.31 1018.44 1018.54 1018.58 1018.53 1018.39 1018.17 1017.89 1017.61 1017.38 1017.23 1017.16 1017.19 1017.29 1017.43 1017.57 1017.68 1017.77 1017.83 1017.89 1017.96 1018.08 1018.26 1018.50 1018.77 1019.06 1019.31 1019.49 1019.58 1019.56 1019.44 1019.25 1019.00 1018.74 1018.50 1018.29
1016.91 1017.37 1017.66 1017.82 1017.90 1017.97 1018.08 1018.25 1018.46 1018.67 1018.84 1018.90 1018.83 1018.60 1018.26 1017.84 1017.43 1017.08 1016.85 1016.77 1016.82 1017.00 1017.24 1017.50 1017.73 1017.91 1018.03 1018.12 1018.21 1018.32 1018.48 1018.71 1018.98 1019.27 1019.53 1019.74 1019.85 1019.85 1019.74 1019.54 1019.29 1019.02 1018.76 1018.56
1017.17 1017.45 1017.59 1017.63 1017.66 1017.74 1017.92 1018.20 1018.54 1018.87 1019.12 1019.22 1019.12 1018.81 1018.33 1017.76 1017.18 1016.69 1016.36 1016.22 1016.29 1016.53 1016.87 1017.24 1017.60 1017.89 1018.10 1018.25 1018.37 1018.49 1018.65 1018.87 1019.14 1019.43 1019.71 1019.94 1020.08 1020.10 1020.01 1019.82 1019.58 1019.31 1019.06 1018.86
1017.28 1017.37 1017.35 1017.30 1017.30 1017.43 1017.71 1018.12 1018.62 1019.09 1019.43 1019.56 1019.43 1019.03 1018.41 1017.65 1016.89 1016.24 1015.78 1015.58 1015.63 1015.91 1016.33 1016.82 1017.30 1017.71 1018.02 1018.25 1018.41 1018.56 1018.73 1018.96 1019.23 1019.54 1019.84 1020.09 1020.26 1020.31 1020.25 1020.10 1019.87 1019.62 1019.39 1019.19
1017.28 1017.19 1017.05 1016.93 1016.94 1017.14 1017.54 1018.11 1018.76 1019.35 1019.78 1019.93 1019.76 1019.25 1018.47 1017.53 1016.58 1015.75 1015.16 1014.87 1014.89 1015.19 1015.68 1016.28 1016.87 1017.40 1017.81 1018.12 1018.35 1018.54 1018.73 1018.97 1019.25 1019.57 1019.89 1020.18 1020.38 1020.48 1020.46 1020.34 1020.15 1019.93 1019.71 1019.53
1017.22 1017.00 1016.77 1016.63 1016.68 1016.97 1017.50 1018.21 1018.99 1019.68 1020.16 1020.31 1020.07 1019.44 1018.50 1017.38 1016.24 1015.24 1014.52 1014.14 1014.12 1014.43 1014.98 1015.66 1016.36 1016.99 1017.51 1017.90 1018.19 1018.42 1018.64 1018.89 1019.19 1019.53 1019.87 1020.19 1020.44 1020.59 1020.62 1020.55 1020.40 1020.22 1020.03 1019.87
1017.16 1016.86 1016.60 1016.48 1016.59 1016.97 1017.61 1018.43 1019.30 1020.05 1020.53 1020.64 1020.31 1019.55 1018.46 1017.17 1015.87 1014.74 1013.89 1013.44 1013.39 1013.70 1014.29 1015.03 1015.81 1016.54 1017.14 1017.61 1017.96 1018.23 1018.48 1018.75 1019.06 1019.42 1019.79 1020.14 1020.43 1020.63 1020.72 1020.70 1020.61 1020.46 1020.31 1020.18
1017.10 1016.79 1016.55 1016.48 1016.67 1017.14 1017.86 1018.74 1019.63 1020.37 1020.82 1020.85 1020.41 1019.53 1018.31 1016.90 1015.48 1014.24 1013.33 1012.82 1012.74 1013.06 1013.67 1014.46 1015.30 1016.09 1016.76 1017.29 1017.69 1018.00 1018.28 1018.57 1018.89 1019.27 1019.66 1020.04 1020.38 1020.62 1020.76 1020.80 1020.76 1020.66 1020.55 1020.45
1017.03 1016.77 1016.60 1016.62 1016.88 1017.41 1018.17 1019.04 1019.90 1020.58 1020.94 1020.86 1020.32 1019.34 1018.03 1016.54 1015.07 1013.79 1012.85 1012.32 1012.24 1012.56 1013.19 1014.00 1014.87 1015.70 1016.41 1016.97 1017.41 1017.76 1018.06 1018.37 1018.71 1019.10 1019.51 1019.92 1020.29 1020.57 1020.76 1020.85 1020.86 1020.81 1020.74 1020.68
1016.93 1016.77 1016.71 1016.81 1017.14 1017.70 1018.43 1019.25 1020.01 1020.57 1020.80 1020.62 1019.98 1018.94 1017.60 1016.11 1014.65 1013.40 1012.49 1011.99 1011.92 1012.25 1012.87 1013.69 1014.56 1015.39 1016.11 1016.70 1017.16 1017.53 1017.86 1018.18 1018.54 1018.94 1019.37 1019.80 1020.19 1020.51 1020.73 1020.87 1020.92 1020.92 1020.89 1020.87
1016.77 1016.75 1016.80 1017.00 1017.36 1017.91 1018.57 1019.27 1019.89 1020.30 1020.39 1020.09 1019.39 1018.34 1017.03 1015.62 1014.25 1013.09 1012.26 1011.82 1011.79 1012.12 1012.73 1013.52 1014.36 1015.17 1015.88 1016.47 1016.95 1017.34 1017.69 1018.03 1018.41 1018.82 1019.26 1019.70 1020.10 1020.44 1020.69 1020.86 1020.95 1020.99 1021.01 1021.03
1016.55 1016.68 1016.85 1017.11 1017.48 1017.96 1018.51 1019.05 1019.49 1019.72 1019.67 1019.29 1018.57 1017.56 1016.35 1015.07 1013.87 1012.86 1012.16 1011.81 1011.82 1012.15 1012.74 1013.47 1014.26 1015.02 1015.70 1016.28 1016.76 1017.17 1017.55 1017.92 1018.32 1018.74 1019.19 1019.62 1020.03 1020.38 1020.65 1020.84 1020.96 1021.04 1021.09 1021.15
1016.30 1016.56 1016.82 1017.12 1017.46 1017.84 1018.23 1018.58 1018.82 1018.87 1018.69 1018.25 1017.54 1016.63 1015.57 1014.49 1013.50 1012.69 1012.14 1011.90 1011.96 1012.29 1012.83 1013.50 1014.21 1014.91 1015.54 1016.10 1016.59 1017.02 1017.43 1017.84 1018.26 1018.70 1019.14 1019.58 1019.98 1020.32 1020.60 1020.81 1020.95 1021.06 1021.16 1021.26
1016.09 1016.45 1016.76 1017.04 1017.31 1017.56 1017.76 1017.90 1017.93 1017.81 1017.51 1017.03 1016.37 1015.58 1014.72 1013.88 1013.12 1012.53 1012.15 1012.02 1012.13 1012.45 1012.94 1013.53 1014.16 1014.78 1015.37 1015.91 1016.41 1016.87 1017.31 1017.76 1018.21 1018.67 1019.12 1019.55 1019.94 1020.27 1020.55 1020.76 1020.93 1021.08 1021.21 1021.35
1015.96 1016.37 1016.69 1016.92 1017.08 1017.15 1017.15 1017.06 1016.88 1016.60 1016.20 1015.70 1015.11 1014.47 1013.82 1013.21 1012.70 1012.33 1012.12 1012.10 1012.26 1012.57 1012.99 1013.50 1014.05 1014.61 1015.16 1015.69 1016.20 1016.69 1017.18 1017.67 1018.16 1018.63 1019.09 1019.51 1019.89 1020.21 1020.48 1020.71 1020.90 1021.08 1021.25 1021.43
1015.96 1016.37 1016.65 1016.79 1016.79 1016.68 1016.46 1016.15 1015.76 1015.32 1014.84 1014.33 1013.81 1013.32 1012.86 1012.48 1012.20 1012.03 1011.98 1012.06 1012.26 1012.56 1012.94 1013.38 1013.86 1014.37 1014.89 1015.41 1015.95 1016.49 1017.03 1017.56 1018.09 1018.59 1019.05 1019.47 1019.83 1020.15 1020.42 1020.65 1020.87 1021.08 1021.29 1021.51
1016.07 1016.43 1016.63 1016.64 1016.47 1016.16 1015.72 1015.20 1014.63 1014.05 1013.49 1012.97 1012.52 1012.15 1011.86 1011.68 1011.60 1011.60 1011.69 1011.86 1012.10 1012.40 1012.75 1013.14 1013.58 1014.05 1014.56 1015.10 1015.67 1016.26 1016.85 1017.44 1018.00 1018.52 1018.99 1019.40 1019.76 1020.08 1020.35 1020.60 1020.85 1021.09 1021.35 1021.62
1016.22 1016.49 1016.57 1016.44 1016.10 1015.60 1014.96 1014.25 1013.52 1012.82 1012.19 1011.66 1011.26 1010.98 1010.84 1010.81 1010.88 1011.03 1011.23 1011.48 1011.77 1012.08 1012.42 1012.80 1013.22 1013.69 1014.21 1014.78 1015.39 1016.03 1016.67 1017.30 1017.90 1018.44 1018.92 1019.34 1019.70 1020.02 1020.30 1020.58 1020.85 1021.14 1021.44 1021.75
1016.28 1016.44 1016.39 1016.10 1015.61 1014.94 1014.15 1013.29 1012.43 1011.64 1010.95 1010.42 1010.05 1009.84 1009.79 1009.88 1010.07 1010.33 1010.63 1010.95 1011.29 1011.63 1011.99 1012.39 1012.82 1013.31 1013.87 1014.48 1015.13 1015.82 1016.51 1017.18 1017.80 1018.37 1018.86 1019.29 1019.66 1019.99 1020.29 1020.59 1020.90 1021.23 1021.57 1021.91
1016.13 1016.16 1015.97 1015.55 1014.93 1014.14 1013.24 1012.28 1011.35 1010.50 1009.79 1009.25 1008.90 1008.75 1008.77 1008.93 1009.20 1009.54 1009.91 1010.31 1010.70 1011.09 1011.50 1011.93 1012.41 1012.95 1013.55 1014.20 1014.91 1015.63 1016.36 1017.07 1017.72 1018.30 1018.82 1019.26 1019.65 1020.00 1020.33 1020.66 1021.00 1021.36 1021.73 1022.10
1015.65 1015.55 1015.23 1014.71 1014.00 1013.15 1012.19 1011.21 1010.26 1009.40 1008.70 1008.17 1007.85 1007.73 1007.79 1008.00 1008.32 1008.72 1009.15 1009.60 1010.06 1010.51 1010.98 1011.47 1012.01 1012.60 1013.25 1013.96 1014.70 1015.47 1016.23 1016.96 1017.63 1018.24 1018.78 1019.25 1019.66 1020.04 1020.41 1020.77 1021.15 1021.53 1021.92 1022.31
1014.79 1014.56 1014.14 1013.56 1012.81 1011.95 1011.01 1010.06 1009.15 1008.35 1007.69 1007.20 1006.92 1006.83 1006.91 1007.15 1007.50 1007.92 1008.40 1008.89 1009.40 1009.92 1010.45 1011.01 1011.62 1012.27 1012.97 1013.72 1014.51 1015.30 1016.09 1016.84 1017.53 1018.17 1018.73 1019.24 1019.69 1020.11 1020.52 1020.91 1021.31 1021.72 1022.12 1022.50
1013.58 1013.23 1012.75 1012.13 1011.40 1010.59 1009.74 1008.88 1008.07 1007.36 1006.79 1006.37 1006.13 1006.07 1006.17 1006.41 1006.77 1007.21 1007.70 1008.22 1008.78 1009.35 1009.94 1010.56 1011.22 1011.93 1012.67 1013.46 1014.27 1015.09 1015.89 1016.67 1017.39 1018.05 1018.66 1019.21 1019.71 1020.18 1020.63 1021.06 1021.48 1021.90 1022.29 1022.66
1012.13 1011.69 1011.17 1010.56 1009.89 1009.18 1008.45 1007.74 1007.08 1006.51 1006.04 1005.72 1005.53 1005.50 1005.61 1005.85 1006.19 1006.62 1007.10 1007.64 1008.21 1008.81 1009.44 1010.11 1010.81 1011.56 1012.34 1013.15 1013.97 1014.81 1015.63 1016.42 1017.17 1017.88 1018.53 1019.13 1019.69 1020.22 1020.71 1021.18 1021.63 1022.05 1022.44 1022.79
1010.62 1010.12 1009.58 1009.01 1008.43 1007.85 1007.28 1006.74 1006.25 1005.84 1005.50 1005.28 1005.16 1005.15 1005.26 1005.48 1005.80 1006.19 1006.65 1007.17 1007.73 1008.33 1008.98 1009.66 1010.39 1011.15 1011.95 1012.77 1013.61 1014.45 1015.28 1016.10 1016.88 1017.63 1018.33 1019.00 1019.62 1020.21 1020.76 1021.27 1021.74 1022.17 1022.55 1022.88
Thickness
5710 5697 5689 5694 5699 5699 5695 5690 5688 5694 5705 5704 5701 5702 5709 5714 5714 5712 5711 5713 5716 5720 5724 5726 5728 5729 5729 5728 5728 5728 5727 5725 5725 5723 5721 5719 5717 5717 5716 5716 5715 5714 5713 5711
5692 5689 5698 5703 5702 5699 5693 5686 5685 5691 5701 5701 5696 5699 5707 5711 5713 5714 5713 5712 5715 5717 5720 5722 5724 5726 5727 5726 5726 5725 5725 5724 5724 5723 5721 5719 5717 5716 5715 5714 5714 5713 5712 5711
5687 5693 5703 5700 5695 5691 5688 5685 5685 5685 5693 5697 5694 5692 5700 5709 5713 5715 5716 5716 5717 5718 5719 5720 5722 5723 5724 5724 5725 5726 5724 5724 5723 5723 5721 5719 5717 5715 5713 5712 5712 5711 5711 5710
5689 5697 5699 5694 5691 5690 5680 5692 5691 5687 5680 5674 5683 5671 5691 5701 5705 5710 5713 5714 5716 5720 5720 5721 5722 5722 5723 5725 5725 5725 5724 5723 5723 5722 5721 5718 5715 5711 5711 5710 5710 5710 5710 5709
5685 5692 5692 5688 5690 5692 5686 5692 5688 5683 5675 5670 5675 5671 5682 5696 5697 5706 5713 5717 5719 5721 5722 5722 5723 5724 5725 5726 5725 5724 5723 5723 5722 5722 5721 5718 5715 5713 5711 5710 5710 5709 5709 5708
5687 5695 5695 5692 5695 5695 5690 5683 5676 5669 5664 5656 5669 5666 5675 5690 5702 5710 5716 5720 5721 5722 5723 5723 5725 5725 5725 5725 5724 5723 5722 5721 5722 5721 5720 5718 5716 5713 5711 5709 5708 5707 5707 5707
5677 5685 5692 5695 5685 5685 5682 5664 5649 5646 5643 5650 5668 5667 5680 5706 5716 5720 5722 5723 5724 5724 5723 5722 5722 5722 5723 5723 5723 5723 5721 5721 5721 5720 5719 5718 5717 5714 5712 5710 5708 5707 5706 5705
5662 5663 5682 5689 5684 5676 5674 5666 5646 5638 5638 5648 5664 5664 5690 5714 5721 5726 5728 5728 5725 5724 5724 5724 5724 5724 5725 5724 5723 5722 5721 5721 5720 5720 5719 5719 5717 5715 5713 5712 5710 5708 5706 5705
5658 5662 5683 5690 5690 5682 5668 5663 5665 5651 5649 5645 5655 5671 5693 5713 5717 5721 5725 5725 5725 5725 5725 5725 5726 5726 5726 5726 5725 5724 5722 5721 5720 5720 5719 5718 5717 5716 5714 5712 5711 5709 5707 5706
5670 5663 5675 5684 5685 5682 5678 5668 5654 5649 5640 5638 5653 5665 5678 5699 5708 5716 5720 5722 5725 5726 5726 5726 5727 5728 5728 5728 5726 5725 5723 5722 5721 5720 5719 5718 5717 5716 5714 5713 5711 5709 5707 5706
5674 5662 5665 5673 5671 5669 5668 5664 5657 5648 5647 5639 5641 5662 5697 5703 5710 5714 5719 5724 5726 5726 5727 5728 5728 5728 5728 5727 5726 5724 5722 5721 5720 5719 5718 5717 5716 5715 5714 5712 5711 5709 5708 5706
5672 5658 5652 5664 5677 5681 5676 5669 5659 5648 5646 5644 5643 5663 5708 5709 5713 5717 5720 5724 5726 5728 5728 5729 5729 5727 5726 5725 5725 5723 5722 5721 5720 5719 5718 5716 5715 5714 5713 5711 5710 5709 5707 5706
5672 5657 5645 5650 5659 5669 5670 5670 5666 5658 5648 5641 5643 5667 5706 5708 5713 5717 5720 5722 5725 5727 5727 5726 5726 5726 5727 5726 5725 5723 5722 5721 5720 5719 5717 5715 5713 5712 5711 5710 5709 5708 5707 5704
5679 5659 5651 5646 5653 5663 5664 5668 5665 5657 5647 5646 5655 5673 5695 5703 5708 5714 5719 5722 5724 5726 5726 5725 5725 5726 5727 5727 5725 5723 5721 5721 5719 5718 5716 5714 5713 5712 5711 5709 5708 5707 5705 5703
5677 5659 5660 5663 5670 5669 5669 5670 5667 5662 5662 5659 5669 5678 5693 5703 5710 5715 5719 5721 5722 5723 5724 5726 5726 5726 5726 5725 5724 5723 5721 5719 5719 5716 5715 5714 5713 5711 5709 5707 5706 5704 5703 5702
5671 5662 5659 5661 5668 5667 5666 5671 5670 5669 5671 5670 5675 5683 5704 5709 5712 5714 5717 5720 5721 5724 5726 5728 5728 5727 5727 5726 5725 5723 5720 5719 5718 5716 5715 5713 5711 5709 5707 5705 5704 5702 5700 5699
5664 5659 5652 5649 5660 5661 5656 5672 5673 5674 5680 5679 5678 5693 5705 5707 5710 5715 5718 5721 5724 5728 5730 5730 5731 5731 5731 5730 5728 5724 5722 5719 5717 5716 5714 5711 5710 5707 5705 5704 5701 5700 5698 5696
5662 5656 5649 5646 5650 5643 5670 5689 5689 5684 5688 5692 5696 5702 5706 5710 5715 5719 5723 5725 5727 5730 5732 5733 5734 5734 5733 5732 5729 5726 5722 5719 5716 5714 5713 5710 5708 5706 5703 5701 5699 5698 5696 5694
5668 5657 5645 5640 5640 5650 5673 5688 5687 5683 5685 5699 5699 5705 5709 5712 5713 5717 5727 5731 5733 5735 5737 5738 5738 5737 5734 5731 5729 5725 5720 5717 5715 5714 5712 5710 5708 5705 5702 5699 5697 5696 5693 5691
5660 5660 5648 5640 5640 5643 5671 5693 5698 5690 5681 5705 5705 5706 5708 5707 5698 5711 5729 5732 5735 5737 5738 5738 5737 5734 5732 5731 5728 5724 5720 5717 5716 5716 5714 5711 5709 5706 5702 5700 5697 5694 5692 5690
5647 5646 5644 5640 5641 5654 5683 5694 5693 5672 5684 5709 5710 5710 5709 5707 5713 5723 5729 5731 5734 5736 5738 5737 5735 5733 5733 5731 5728 5723 5720 5719 5720 5717 5713 5710 5708 5705 5702 5699 5695 5692 5689 5686
5649 5643 5641 5640 5639 5655 5691 5689 5684 5691 5706 5709 5711 5712 5712 5714 5719 5722 5726 5728 5731 5733 5735 5735 5733 5732 5731 5730 5728 5724 5721 5722 5718 5714 5711 5708 5705 5703 5700 5696 5691 5688 5685 5681
5653 5659 5657 5659 5666 5684 5692 5694 5701 5703 5704 5708 5711 5714 5714 5714 5716 5719 5722 5724 5727 5729 5730 5732 5731 5729 5727 5728 5728 5724 5722 5719 5715 5711 5708 5705 5702 5700 5697 5693 5688 5684 5681 5678
5655 5662 5659 5661 5672 5684 5690 5695 5701 5704 5705 5709 5713 5714 5714 5712 5715 5716 5718 5719 5722 5725 5726 5727 5727 5725 5724 5724 5725 5724 5720 5717 5712 5708 5704 5702 5698 5695 5692 5689 5686 5682 5679 5675
5656 5656 5657 5661 5673 5682 5689 5694 5698 5702 5706 5709 5712 5714 5714 5714 5713 5714 5714 5716 5718 5721 5723 5724 5723 5723 5722 5721 5720 5719 5716 5714 5709 5704 5701 5698 5695 5692 5687 5685 5683 5681 5680 5678
5652 5655 5657 5663 5676 5676 5683 5693 5697 5698 5702 5705 5708 5709 5711 5712 5711 5712 5712 5714 5716 5717 5718 5718 5718 5718 5717 5717 5715 5714 5712 5710 5705 5700 5697 5694 5690 5687 5684 5680 5676 5675 5674 5673